Chanute, KS

1:16 AM CDT on October 21, 2017 (GMT -0500)
Chanute Martin Johnson

Weather History for KCNU - September, 2013

Change the Weather History Date:

Friday, September 13, 2013

  Actual Average Record
Temperature  
Mean Temperature 71 °F 71 °F  
Max Temperature 82 °F 82 °F 100 °F (2011)
Min Temperature 59 °F 60 °F 39 °F (2014)
Degree Days  
Heating Degree Days 0 1  
Month to date heating degree days 0 4  
Since 1 July heating degree days 0 5  
Cooling Degree Days 6 7  
Month to date cooling degree days 169 117  
Year to date cooling degree days 1436 1421  
Growing Degree Days 21 (Base 50)    
Moisture  
Dew Point 48 °F    
Average Humidity 47    
Maximum Humidity 64    
Minimum Humidity 30    
Precipitation  
Precipitation 0.00 in 0.10 in 3.88 in (1961)
Month to date precipitation T 1.43  
Year to date precipitation 34.78 31.92  
Sea Level Pressure  
Sea Level Pressure 30.08 in    
Wind  
Wind Speed 9 mph (NE)    
Max Wind Speed 15 mph    
Max Gust Speed 28 mph    
Visibility 10 miles    
Events      
T = Trace of Precipitation, MM = Missing Value Source: NWS Daily Summary

Daily Weather History Graph

Daily Weather History Graph

Search for Another Location

Airport or City:

Trip Planner

Search our weather history database for the weather conditions in past years. The results will help you decide how hot, cold, wet, or windy it might be!

Date:

Astronomy

Sep. 13, 2013 Rise Set
Actual Time 7:02 AM CDT 7:32 PM CDT
Civil Twilight 6:36 AM CDT 7:58 PM CDT
Nautical Twilight 6:05 AM CDT 8:29 PM CDT
Astronomical Twilight 5:33 AM CDT 9:01 PM CDT
Moon 3:18 PM CDT (9/13) 12:37 AM CDT (9/13)
Length of Visible Light 13h 22m
Length of Day
12h 30m
First Quarter, 61% of the Moon is Illuminated
Sep 13
First Quarter
Sep 19
Full
Sep 26
Last Quarter
Oct 4
New
Oct 11
First Quarter

Hourly Weather History & Observations

Time (CDT) Temp. Dew Point Humidity Pressure Visibility Wind Dir Wind Speed Gust Speed Precip Events Conditions
12:52 AM 73.0 °F 57.9 °F 59% 30.08 in 10.0 mi NE 9.2 mph - N/A   Clear
1:52 AM 71.1 °F 54.0 °F 55% 30.10 in 10.0 mi NE 9.2 mph - N/A   Clear
2:52 AM 69.1 °F 50.0 °F 51% 30.10 in 10.0 mi NE 10.4 mph - N/A   Clear
3:52 AM 66.9 °F 48.0 °F 51% 30.09 in 10.0 mi ENE 10.4 mph - N/A   Clear
4:52 AM 64.9 °F 48.0 °F 54% 30.11 in 10.0 mi NE 9.2 mph - N/A   Clear
5:52 AM 63.0 °F 48.0 °F 58% 30.11 in 10.0 mi NE 8.1 mph - N/A   Clear
6:52 AM 62.1 °F 48.0 °F 60% 30.13 in 10.0 mi NE 6.9 mph - N/A   Clear
7:52 AM 61.0 °F 48.0 °F 62% 30.13 in 10.0 mi NE 6.9 mph - N/A   Clear
8:52 AM 66.9 °F 48.9 °F 52% 30.13 in 10.0 mi ENE 9.2 mph - N/A   Clear
9:52 AM 70.0 °F 48.9 °F 47% 30.14 in 10.0 mi ENE 10.4 mph - N/A   Clear
10:52 AM 73.9 °F 48.9 °F 41% 30.14 in 10.0 mi ENE 12.7 mph - N/A   Clear
11:52 AM 75.9 °F 46.9 °F 36% 30.13 in 10.0 mi ENE 10.4 mph 18.4 mph N/A   Clear
12:52 PM 78.1 °F 46.0 °F 32% 30.11 in 10.0 mi ENE 11.5 mph 16.1 mph N/A   Clear
1:52 PM 80.1 °F 46.9 °F 31% 30.09 in 10.0 mi NNE 10.4 mph - N/A   Clear
2:52 PM 80.1 °F 46.0 °F 30% 30.05 in 10.0 mi East 12.7 mph - N/A   Clear
3:52 PM 81.0 °F 46.0 °F 29% 30.04 in 10.0 mi NE 6.9 mph - N/A   Clear
4:52 PM 79.0 °F 48.9 °F 35% 30.04 in 10.0 mi ENE 12.7 mph - N/A   Clear
5:52 PM 78.1 °F 46.9 °F 33% 30.03 in 10.0 mi NE 9.2 mph - N/A   Clear
6:52 PM 75.0 °F 46.9 °F 37% 30.03 in 10.0 mi ENE 8.1 mph - N/A   Clear
7:52 PM 70.0 °F 48.0 °F 46% 30.04 in 10.0 mi ENE 6.9 mph - N/A   Clear
8:52 PM 68.0 °F 48.0 °F 49% 30.05 in 10.0 mi ENE 4.6 mph - N/A   Clear
9:52 PM 66.0 °F 48.0 °F 52% 30.05 in 10.0 mi ENE 5.8 mph - N/A   Clear
10:52 PM 64.9 °F 48.9 °F 56% 30.04 in 10.0 mi ENE 5.8 mph - N/A   Clear
11:52 PM 63.0 °F 48.0 °F 58% 30.04 in 10.0 mi NE 5.8 mph - N/A   Clear